Epoch 2009 July 28.0 TT = JDT 2455040.5
T 2009 Aug. 8.82330 TT MPC
q 1.4859733 (2000.0) P Q
n 0.15728510 Peri. 308.72702 +0.45779119 -0.85783867
a 3.3989465 Node 112.50918 +0.87382239 +0.38572033
e 0.5628136 Incl. 14.64306 +0.16389527 +0.33960661
P 6.27